This demonstration page uses our WeatherBlox Daily Observations layout. Learn more.

Left ArrowRight Arrow

31.84235, -102.49876

Hourly Observations for March 29, 2022

Temp ( °F °C ) Dew Point ( °F °C ) Humidity (%) Winds ( mph kmh ) Pressure ( in mb ) Visibility ( mi km ) Precip ( " mm )
12:53 am 00:53 Clear 75 23.9 44 6.7 33 33 S 15 24 29.67 1005 10 16 0.00 0.00
1:53 am 01:53 Clear 74 23.3 43 6.1 33 33 S 15 24 29.65 1004 10 16 0.00 0.00
2:53 am 02:53 Clear 72 22.2 42 5.6 34 34 S 16 26 29.63 1004 10 16 0.00 0.00
3:53 am 03:53 Clear 71 21.7 43 6.1 36 36 SW 14 22 29.62 1003 10 16 0.00 0.00
4:53 am 04:53 Clear with Light Rain 69 20.6 44 6.7 41 41 SSW 16 26 29.61 1003 10 16 0.00 0.00
5:53 am 05:53 Clear with Light Rain 67 19.4 45 7.2 45 45 W 10 17 29.62 1003 10 16 0.00 0.00
6:23 am 06:23 Clear with Light Rain 66 18.9 45 7.2 47 47 S 8 13 29.64 1004 10 16 0.00 0.00
6:53 am 06:53 Clear with Light Rain 66 18.9 45 7.2 47 47 S 12 19 29.61 1003 10 16 0.00 0.00
7:53 am 07:53 Sunny with Light Rain 65 18.3 45 7.2 49 49 S 10 17 29.60 1002 10 16 0.00 0.00
8:53 am 08:53 Sunny with Light Rain 66 18.9 46 7.8 49 49 SSW 8 13 29.60 1002 10 16 0.00 0.00
9:53 am 09:53 Sunny with Light Rain 73 22.8 40 4.4 30 30 SSW 13 20 29.61 1003 10 16 0.00 0.00
10:53 am 10:53 Sunny with Light Rain 77 25 35 1.7 22 22 SSW 14 22 29.59 1002 10 16 0.00 0.00
11:53 am 11:53 Sunny with Light Rain 80 26.7 35 1.7 20 20 S 15 24 29.57 1001 10 16 0.00 0.00
12:53 pm 12:53 Sunny with Light Rain 83 28.3 34 1.1 17 17 SSW 12 19 29.52 1000 10 16 0.00 0.00
1:53 pm 13:53 Sunny with Light Rain 84 28.9 28 -2.2 13 13 SW 17 28 29.48 998 10 16 0.00 0.00
2:53 pm 14:53 Sunny 87 30.6 35 1.7 16 16 SW 9 15 29.42 996 10 16 0.00 0.00
3:53 pm 15:53 Sunny 88 31.1 36 2.2 16 16 SSW 21 33 29.37 995 10 16 0.00 0.00
4:53 pm 16:53 Sunny 90 32.2 17 -8.3 7 7 WSW 14 22 29.34 993 8 13 0.00 0.00
5:53 pm 17:53 Sunny 89 31.7 12 -11.1 5 5 W 26 43 29.31 993 7 11 0.00 0.00
6:53 pm 18:53 Hazy 84 28.9 17 -8.3 8 8 WNW 30 48 29.33 993 6 10 0.00 0.00
7:53 pm 19:53 Hazy 77 25 25 -3.9 14 14 NW 28 44 29.40 996 5 8 0.00 0.00
8:53 pm 20:53 Clear 73 22.8 28 -2.2 19 19 NW 29 46 29.42 996 8 13 0.00 0.00
9:53 pm 21:53 Clear 71 21.7 23 -5 16 16 WNW 26 43 29.47 998 10 16 0.00 0.00
10:53 pm 22:53 Clear 68 20 23 -5 18 18 WNW 20 31 29.52 1000 10 16 0.00 0.00
11:53 pm 23:53 Clear 66 18.9 25 -3.9 21 21 WNW 21 33 29.53 1000 10 16 0.00 0.00

Powered by AerisWeather